Location: Helsinki
(60.1699°N, 24.9384°E)
Time: 11:49:31
(UTC+03:00)

ISS - Visible Passes

Search period start: 09 May 2021 00:00
Search period end: 19 May 2021 00:00
Orbit: 418 x 421 km, 51.6° (Epoch: 09 May)

Date Brightness Start Highest point End Pass type
(mag) Time Alt. Az. Time Alt. Az. Time Alt. Az.
09 May -2.1 03:03:27 14° SSW 03:04:53 18° S 03:07:15 10° SE visible
10 May -2.0 02:17:26 16° S 02:17:40 16° SSE 02:19:50 10° SE visible
10 May -2.2 03:51:10 10° SW 03:53:40 19° S 03:56:11 10° SE visible
11 May -1.6 01:31:25 13° SE 01:31:25 13° SE 01:32:16 10° SE visible
11 May -2.3 03:04:20 12° SW 03:06:26 20° S 03:08:57 10° SE visible
12 May -2.3 02:18:15 17° SSW 02:19:11 19° S 02:21:39 10° SE visible
13 May -2.2 01:32:05 18° SSE 01:32:05 18° SSE 01:34:18 10° SE visible
13 May -2.2 03:05:32 10° SW 03:07:58 18° S 03:10:23 10° SE visible
14 May -1.8 00:45:42 14° SE 00:45:42 14° SE 00:46:51 10° SE visible
14 May -2.3 02:18:35 12° SW 02:20:42 19° S 02:23:12 10° SE visible
14 May -1.9 23:57:44 14° SSE 23:57:44 14° SSE 23:59:17 10° SE visible
15 May -2.4 01:30:54 10° SW 01:33:26 20° S 01:35:58 10° SE visible
15 May -2.0 03:07:28 10° SW 03:09:26 15° SSW 03:11:24 10° SSE visible
15 May -1.8 23:09:01 10° S 23:10:15 12° SSE 23:11:29 10° SE visible
16 May -2.4 00:43:41 10° SW 00:46:10 19° S 00:48:39 10° SE visible
16 May -2.2 02:19:56 10° SW 02:22:12 17° SSW 02:24:27 10° SSE visible
16 May -2.2 23:56:32 10° SW 23:58:54 18° S 00:01:17 10° SE visible
17 May -2.3 01:32:32 10° SW 01:34:56 18° S 01:37:21 10° SE visible
17 May -2.1 23:09:29 10° SSW 23:11:39 16° SSE 23:13:49 10° SE visible
18 May -2.3 00:45:10 10° SW 00:47:40 19° S 00:49:57 11° SE visible
18 May -1.7 02:22:09 10° SW 02:22:50 12° SW 02:22:50 12° SW visible
